Dewpoint
-6 -6 -5 -5 -4 -5 -5 -6 -6 -6 -6 -6 -5 -3 -3 -1 -4 -7 -4 -2 -1 -0 -2 -1 -1 0 2 -2 0 -3 -0 1 5 8 5 4 3 2 2 1 2 3 3 3 1 4 5 -3 -3 1 2 1 -0 -0
-3 -5 -6 -4 -3 -3 -4 -4 -5 -5 -5 -4 -3 -2 -2 -4 -8 -9 -2 -2 -3 -1 -0 -1 -1 -0 1 4 6 5 2 5 3 6 8 3 2 5 1 2 -1 2 0 2 1 2 2 -3 1 2 1 1 1 -0
-2 -4 -6 -6 -4 -3 -2 -3 -3 -2 -2 -2 -2 -2 -5 -8 -10 -10 -2 -1 -1 -0 -1 0 1 1 2 3 5 7 7 9 9 9 10 9 6 3 4 3 3 2 3 5 4 1 -0 -1 1 1 1 1 0 2
-2 -2 -4 -4 -3 -2 -2 -2 -2 -2 -1 -2 -3 -6 -10 -10 -8 -6 -3 -3 -1 -1 0 2 3 3 3 4 5 5 7 7 9 8 10 12 8 5 5 3 4 2 3 5 4 2 1 0 1 1 1 1 3 2
-2 -2 -3 -3 -2 -2 -2 -2 -2 -2 -4 -7 -9 -10 -9 -6 -3 -2 -2 -1 -1 -1 0 2 1 2 3 5 4 4 6 7 8 9 11 10 5 6 5 3 4 0 5 5 5 3 3 2 1 1 1 3 3 2
-2 -3 -3 -4 -5 -6 -7 -8 -9 -10 -10 -10 -8 -6 -4 -2 -2 -2 -1 -3 -1 -0 -0 3 3 5 4 6 6 7 8 9 9 9 10 7 8 6 7 5 2 0 3 -0 4 3 2 1 1 1 3 3 2 1
-4 -3 -3 -5 -6 -8 -9 -10 -10 -9 -8 -6 -3 -3 -3 -3 -2 -1 -1 1 1 -0 1 3 4 6 5 5 8 8 8 8 7 8 8 6 5 5 6 6 2 1 3 3 3 3 3 2 2 3 2 2 1 0
-9 -7 -4 -3 -4 -5 -6 -6 -8 -8 -7 -6 -6 -4 -4 -3 -3 -2 -3 1 1 1 1 2 5 6 5 5 8 7 7 7 7 7 6 6 4 3 9 3 2 2 3 3 3 2 2 2 2 2 2 2 1 -2
-9 -9 -9 -9 -9 -8 -7 -8 -8 -7 -7 -7 -7 -6 -4 -3 -2 -2 -0 1 1 2 3 3 6 7 5 5 5 4 6 9 6 9 4 3 3 6 4 3 3 4 4 4 3 3 3 3 2 2 2 2 -1 -5
-7 -8 -8 -9 -8 -7 -8 -6 -5 -4 -4 -4 -3 -2 -2 -3 -3 1 1 1 1 2 2 3 4 5 6 4 8 7 6 8 10 6 4 5 3 2 2 3 4 4 3 3 3 3 3 3 3 2 2 1 -2 -6
-5 -5 -5 -6 -6 -5 -5 -4 -4 -4 -4 -3 -2 -2 -2 0 1 1 -0 0 1 3 3 3 3 5 4 7 8 6 9 6 8 4 6 4 2 4 3 4 3 3 3 2 1 3 3 3 3 2 2 -0 -4 -7
-4 -5 -5 -5 -5 -5 -4 -4 -3 -3 -2 -2 -2 -1 -0 0 0 1 2 1 2 4 3 4 5 6 4 2 7 6 7 7 7 4 10 7 3 3 4 4 4 4 3 3 3 3 3 3 3 2 1 -2 -5 -7
-4 -4 -4 -4 -4 -4 -3 -3 -3 -3 -3 -3 -2 -1 -0 -0 2 3 3 4 4 3 5 5 7 4 4 2 4 4 5 8 4 11 6 2 3 4 4 4 4 4 3 3 4 3 3 3 3 2 -0 -3 -5 -7
-3 -3 -4 -3 -3 -3 -3 -3 -3 -3 -3 -2 -2 1 1 2 2 1 0 -1 2 3 4 6 6 4 1 4 6 4 4 4 7 9 3 4 4 4 5 5 4 4 4 4 4 3 3 3 2 1 -1 -2 -4 -6
-4 -4 -4 -4 -3 -3 -3 -3 -3 -2 -3 -2 -1 2 2 0 -1 -0 1 3 2 2 3 6 4 1 4 5 4 3 5 6 3 0 1 3 4 5 5 4 4 4 4 4 3 3 3 3 2 1 -1 -2 -4 -6
-4 -4 -3 -3 -3 -3 -3 -3 -3 -2 -2 -1 -1 1 2 2 3 4 2 3 2 4 5 6 3 2 2 2 3 2 1 0 -1 2 2 3 6 6 5 5 5 4 4 3 4 2 2 2 2 0 -1 -2 -4 -8
-4 -4 -3 -3 -3 -3 -3 -2 -2 -2 -1 -0 1 2 2 2 3 3 3 1 2 6 7 4 1 0 -1 -1 -3 -4 -1 5 5 4 3 4 6 6 5 5 5 4 4 4 3 2 2 1 1 -1 -2 -3 -5 -11
-4 -3 -3 -3 -3 -2 -2 -2 -1 -0 0 0 1 2 2 3 3 3 4 1 4 6 5 5 -1 -2 -1 -3 -2 4 4 2 3 4 4 6 6 6 5 5 4 4 4 3 2 1 1 0 -1 -2 -3 -5 -9 -14
-4 -4 -4 -3 -2 -1 -1 -1 -0 0 1 1 1 2 3 4 4 4 3 2 0 4 6 4 -1 -1 -2 -3 3 3 3 4 6 5 5 6 6 6 5 5 4 4 3 1 0 -1 -2 -2 -3 -4 -7 -11 -17 -19
-4 -4 -3 -2 -2 -1 -1 0 0 0 2 2 2 3 3 4 4 5 4 3 2 5 4 5 5 4 3 3 4 5 4 6 6 6 6 6 6 6 5 5 4 3 2 1 0 -1 -1 -1 -3 -7 -11 -16 -20 -20
-3 -3 -2 -1 -1 -1 -0 1 1 1 1 2 2 3 3 4 3 4 3 4 6 5 5 4 4 4 4 3 3 3 5 6 6 6 7 6 6 5 5 4 3 2 2 1 -0 -1 -1 -3 -5 -8 -12 -15 -18 -19
-3 -3 -2 -1 -1 -0 0 -0 0 0 1 1 2 3 3 4 3 2 2 4 3 2 3 4 4 4 4 4 3 3 4 5 6 6 6 6 5 5 5 4 3 3 3 1 -0 -1 -1 -2 -4 -7 -10 -13 -15 -16
-4 -3 -2 -1 -2 -1 0 0 1 1 2 2 2 3 3 3 3 3 3 3 2 2 3 3 4 5 5 5 5 3 4 5 6 6 5 5 5 5 5 4 4 3 3 2 1 1 -0 -2 -3 -5 -8 -9 -11 -12
-7 -7 -4 -3 -2 0 -0 0 1 1 2 3 3 2 2 2 2 1 2 1 0 2 3 4 4 4 5 5 5 5 4 4 5 5 5 5 5 5 4 4 4 3 2 2 2 2 0 -1 -2 -3 -5 -7 -8 -9
-4 -5 -2 -1 -2 -0 1 1 2 1 2 2 3 2 1 2 2 2 2 -1 -1 0 2 4 5 5 4 4 5 5 4 5 5 5 5 5 5 5 5 5 5 4 3 3 3 1 -0 -1 -2 -3 -4 -5 -7 -8
-3 -4 -3 -3 -3 -1 1 1 2 2 1 2 2 -0 1 2 2 1 -1 -3 -2 -1 1 2 3 4 4 4 4 5 5 5 5 5 5 5 5 5 5 5 5 4 3 2 1 0 -1 -1 -2 -3 -3 -4 -5 -7
-2 -2 -3 -2 -1 -1 0 -1 0 1 1 1 2 2 3 2 1 -2 -3 -3 -2 -1 0 1 2 3 3 3 4 4 5 5 5 5 5 5 5 5 5 4 4 4 3 2 1 1 -0 -1 -1 -2 -2 -3 -4 -5
-3 -3 -2 -2 -1 -1 0 -0 -0 -0 -1 -1 -0 -1 -1 -2 -5 -6 -6 -3 -1 -0 0 0 0 1 2 2 3 4 4 5 5 5 5 5 5 5 5 4 4 4 3 2 2 2 1 -0 -1 -1 -1 -2 -3 -3
-4 -3 -4 -2 -3 -3 -2 -1 -2 -2 -3 -2 -1 -3 -5 -7 -8 -7 -5 -2 -1 -0 0 0 1 1 2 2 3 3 3 4 4 4 4 4 4 4 4 4 3 3 3 3 2 2 1 1 0 -0 -0 -1 -2 -2
-4 -3 -3 -3 -3 -2 -3 -3 -3 -3 -2 -3 -5 -5 -6 -7 -7 -6 -4 -2 -0 0 0 0 0 1 1 1 1 2 2 3 3 3 4 4 4 4 4 4 3 3 3 3 3 2 2 1 1 0 -0 -0 -1 -1
-4 -3 -4 -4 -3 -4 -4 -3 -2 -3 -3 -3 -3 -4 -5 -6 -6 -5 -4 -3 -2 -1 0 1 1 1 1 1 1 1 0 -0 -1 -0 0 2 2 3 3 3 3 3 3 3 3 2 2 2 1 1 0 0 0 0
-4 -4 -3 -5 -4 -4 -3 -3 -3 -3 -3 -3 -3 -3 -3 -4 -6 -7 -7 -5 -3 -1 -1 -0 1 1 1 1 1 1 2 1 1 1 1 -1 -2 -0 1 3 3 3 3 3 3 2 2 2 1 1 1 1 1 1
-5 -5 -4 -5 -4 -4 -3 -3 -3 -2 -3 -3 -3 -4 -5 -5 -7 -9 -8 -7 -6 -5 -4 -3 -1 0 1 1 1 2 2 1 -0 -1 -2 0 -0 -0 0 1 2 3 3 3 3 3 3 2 2 2 1 1 1 1
Wind_Speed
7 3 2 1 5 10 14 18 23 26 29 30 32 32 29 30 29 27 19 19 17 12 23 19 24 31 27 21 10 11 13 8 6 5 5 9 7 9 10 15 17 11 7 6 8 7 5 23 20 12 12 34 39 35
5 3 3 4 3 10 11 18 21 25 28 30 32 31 30 27 26 25 16 15 17 18 21 25 32 38 35 24 17 11 9 2 9 6 2 10 10 5 16 13 14 10 8 5 1 4 18 25 17 22 37 40 36 38
10 2 1 5 8 6 8 19 20 25 27 26 28 31 26 23 21 22 16 13 13 15 31 26 23 15 19 21 13 7 1 8 6 12 3 4 9 4 8 6 7 4 14 6 7 10 16 23 23 26 34 38 40 40
17 7 3 4 7 7 11 24 26 29 28 25 23 21 19 18 19 20 19 16 17 6 6 9 10 16 12 19 19 21 18 15 16 12 3 5 4 1 4 11 8 5 8 9 16 15 19 20 26 34 35 39 42 40
11 17 22 25 25 28 25 28 28 24 22 20 19 17 16 17 17 17 18 20 19 13 5 14 25 18 16 15 19 16 13 12 14 4 3 2 1 5 4 5 4 10 13 6 8 23 10 23 33 37 42 44 41 42
7 12 15 15 17 15 16 17 18 18 17 16 16 15 15 14 12 13 6 17 24 21 5 3 10 10 19 17 15 14 12 10 9 7 4 2 3 2 5 4 8 10 26 14 17 28 30 33 37 40 43 41 40 42
6 7 9 9 11 13 13 14 14 14 14 14 13 13 11 10 14 13 7 8 17 12 6 4 4 10 24 18 11 9 10 10 10 8 3 5 6 4 3 3 15 16 15 26 41 32 30 38 39 39 40 40 41 40
3 4 6 7 9 9 9 10 11 11 11 10 9 9 9 12 16 22 25 11 7 8 4 3 5 6 24 18 5 7 5 8 7 4 4 5 2 3 4 19 21 23 27 33 36 38 42 39 41 42 42 44 42 41
2 3 4 6 7 8 9 9 9 8 8 8 8 7 7 13 11 14 13 12 22 10 4 5 3 6 21 13 8 4 11 4 3 3 2 4 2 2 17 24 28 32 24 32 29 36 38 44 44 43 45 43 43 41
2 4 5 6 7 8 10 9 7 5 4 6 7 4 5 10 10 7 5 7 9 7 8 4 7 4 21 14 4 4 5 5 5 2 3 2 3 11 25 26 31 23 35 38 39 34 38 39 45 45 45 43 44 45
5 5 6 7 8 8 10 10 9 7 4 5 6 7 10 11 12 7 5 5 6 4 7 8 15 4 23 9 6 4 4 4 5 4 3 3 3 12 24 27 24 31 37 41 42 49 48 50 46 44 40 39 42 44
8 10 10 11 11 10 11 12 11 10 5 6 9 9 6 9 5 5 5 4 5 4 7 7 14 13 16 22 5 5 4 4 5 7 3 4 6 24 28 28 26 30 31 26 36 38 37 39 42 44 42 42 42 42
8 9 10 11 11 12 14 13 12 10 11 8 5 6 6 6 5 6 9 4 4 4 8 14 5 15 12 7 5 2 3 4 6 2 5 5 20 27 29 28 31 31 28 31 33 35 38 39 38 40 41 41 45 44
7 9 11 13 12 14 15 17 14 8 6 4 3 6 5 6 7 6 8 7 6 6 13 7 9 8 11 4 2 5 1 1 1 2 6 10 27 30 31 32 35 31 32 35 36 39 40 41 41 41 43 45 45 43
6 9 13 15 14 16 15 15 14 14 7 5 6 5 7 9 10 9 8 6 3 9 10 12 8 9 4 5 1 4 6 3 5 4 6 23 30 34 34 35 34 33 37 38 40 43 45 44 44 44 40 40 40 40
11 10 9 7 11 15 16 13 18 17 6 6 8 6 8 5 5 6 8 3 2 7 8 10 5 7 6 8 9 7 10 5 5 5 22 32 32 34 34 34 32 36 39 40 41 43 46 45 43 41 39 37 36 37
8 7 4 8 10 17 21 21 17 10 7 6 5 11 14 8 10 12 8 4 2 7 4 5 6 7 6 4 8 6 2 6 12 18 23 30 34 34 35 34 36 38 39 39 40 44 45 42 39 40 38 36 35 37
9 8 9 11 9 19 23 17 11 11 8 10 5 9 7 8 9 6 5 13 9 5 8 4 3 5 9 12 6 5 9 13 14 19 24 29 31 33 34 36 37 38 38 38 42 44 42 41 40 38 36 38 38 39
14 11 10 10 21 10 10 13 8 6 10 5 7 7 5 6 9 8 11 14 14 11 14 9 5 6 6 3 11 17 19 19 22 23 25 26 30 32 35 35 35 36 37 41 43 42 41 39 40 38 39 41 40 41
8 7 6 17 16 7 6 5 5 4 4 4 3 2 2 4 6 6 9 9 10 7 3 4 5 11 13 13 16 23 23 24 30 29 27 27 29 32 34 35 34 35 37 36 35 38 38 32 33 36 40 41 42 42
8 3 13 17 7 2 1 3 4 2 1 1 4 2 1 4 4 4 6 4 4 7 4 9 8 8 10 14 17 23 24 24 23 27 32 32 30 30 32 30 35 36 38 38 40 37 37 37 36 38 40 39 39 39
10 7 9 9 2 5 3 2 2 1 1 2 3 3 3 3 5 6 4 2 3 4 5 7 9 7 9 11 12 17 20 19 22 26 27 31 32 32 31 34 35 35 36 40 42 42 37 35 36 38 39 38 37 37
5 6 3 1 2 2 3 2 0 1 1 4 3 3 2 2 3 2 3 4 3 9 6 7 9 10 13 13 15 16 17 20 25 25 29 26 27 28 31 31 34 37 37 31 36 36 38 36 36 38 39 37 37 36
2 2 3 1 1 1 1 1 1 0 1 1 1 3 1 3 3 4 3 3 11 11 7 6 10 11 13 13 13 14 16 18 23 26 24 28 28 28 27 28 32 33 36 37 39 37 37 36 36 36 38 38 36 34
2 7 6 3 3 2 1 1 3 2 1 1 3 3 0 1 2 3 3 6 17 17 16 13 10 12 13 13 14 14 14 20 24 24 24 24 27 27 25 24 25 30 35 37 38 40 39 37 35 35 36 36 34 33
3 5 3 6 5 2 2 2 3 4 3 3 3 2 3 2 4 4 2 6 10 14 15 17 18 16 15 14 16 15 15 16 19 21 20 22 25 28 31 31 29 27 30 37 38 40 39 36 34 33 34 34 33 32
4 4 5 4 3 3 2 5 7 4 4 5 3 4 2 3 4 3 2 13 12 11 11 11 15 16 14 13 15 16 15 15 18 19 20 19 19 20 26 32 33 31 31 30 32 34 36 35 33 32 32 33 32 31
4 8 5 10 7 9 3 4 4 5 3 6 1 5 3 5 3 5 4 11 9 11 11 8 8 10 12 12 14 18 20 20 21 22 23 20 16 16 17 21 25 28 25 22 26 29 32 33 32 31 30 30 31 31
5 13 7 6 6 7 9 5 5 6 11 5 2 3 3 6 9 9 10 12 12 14 14 13 11 11 13 15 16 16 15 14 14 19 21 23 23 22 21 20 21 21 20 19 22 25 27 29 30 30 29 28 28 28
11 16 6 7 4 6 8 6 5 9 14 13 11 14 13 11 23 19 17 18 18 19 17 15 14 14 15 15 15 13 11 9 11 11 14 17 17 16 19 20 19 18 18 20 23 26 28 29 31 32 31 30 29 28
7 9 7 8 5 4 5 9 9 16 16 14 15 11 7 7 11 26 25 23 20 15 13 14 15 15 14 14 14 12 11 10 9 7 6 8 9 11 13 14 14 16 19 21 23 26 27 28 29 29 29 28 27 26
8 8 4 3 3 7 6 5 5 5 6 6 8 7 6 6 7 16 26 20 19 17 13 12 11 12 11 12 11 10 10 9 7 6 5 5 8 10 12 13 14 15 17 20 23 24 25 27 28 28 28 28 27 26
4 6 6 4 3 4 5 3 4 2 6 4 6 6 6 6 6 12 14 20 21 17 13 12 11 10 8 9 8 8 7 6 5 5 5 5 7 8 9 11 13 14 15 18 20 22 23 24 25 26 27 27 26 25
Wind_Direction
322 344 44 93 145 151 159 169 175 180 184 185 186 190 193 189 187 195 217 243 235 272 268 260 268 281 285 234 233 216 223 208 205 241 228 161 184 181 170 188 186 160 176 186 178 175 145 150 155 171 127 137 144 144
334 354 122 169 198 162 168 171 174 177 180 181 183 183 183 185 192 197 220 248 251 256 269 276 274 268 263 261 304 293 223 347 223 253 302 184 167 176 157 174 180 183 189 155 83 159 131 153 124 130 139 140 141 141
7 306 205 170 179 203 174 178 169 172 173 178 184 168 178 188 196 204 213 240 255 255 284 272 261 238 239 234 216 269 147 353 337 345 304 248 127 182 164 140 120 79 106 113 99 126 130 125 126 138 142 137 139 139
19 60 149 193 188 188 174 175 158 162 161 160 164 173 183 189 194 204 226 248 249 261 279 294 322 259 228 232 222 233 264 306 308 296 41 294 103 176 139 139 135 152 115 133 107 114 114 136 139 140 136 137 136 139
36 63 78 86 103 108 102 121 134 145 157 165 172 178 183 188 197 216 242 246 243 228 292 293 303 239 211 214 221 230 247 276 299 266 186 288 43 102 124 121 122 165 140 140 164 150 138 144 142 144 142 140 143 144
61 69 77 86 88 105 118 125 134 144 154 162 168 174 181 191 211 238 262 250 229 236 263 286 299 237 204 212 213 219 230 253 249 303 246 312 336 76 122 118 143 174 157 162 151 156 148 146 146 146 142 143 147 147
75 104 119 128 123 120 123 130 137 146 151 160 166 173 189 217 229 226 222 149 157 227 244 272 272 206 188 182 185 213 231 243 239 259 252 171 179 201 108 117 130 134 118 122 141 138 138 145 144 145 143 145 146 145
88 118 135 145 151 151 149 145 146 153 160 170 183 194 215 243 263 262 246 250 194 202 223 261 262 211 174 170 153 179 210 224 236 259 269 152 183 109 73 121 130 124 125 134 144 151 147 144 141 144 146 144 144 145
139 151 155 159 164 171 170 163 159 167 182 197 216 226 237 244 255 255 257 259 192 196 225 222 251 152 179 146 122 182 224 203 218 233 139 190 172 53 139 136 137 136 138 138 139 143 144 143 144 148 148 150 148 150
215 191 181 173 173 176 176 167 179 194 205 211 202 202 227 224 216 189 135 160 189 236 231 247 258 198 173 132 88 266 255 189 186 161 199 167 67 114 137 145 146 147 146 145 140 145 147 148 151 154 157 156 155 154
225 210 199 193 189 193 199 210 219 221 225 196 211 224 241 171 163 179 200 203 206 232 227 236 239 208 162 123 123 237 272 209 166 161 186 122 123 134 139 143 148 151 155 158 161 160 159 156 155 155 157 158 156 158
254 234 223 216 214 217 221 228 229 219 206 213 280 278 222 186 190 191 191 190 222 233 212 213 213 202 130 131 136 241 292 269 100 160 91 129 139 142 143 147 148 149 149 146 152 153 157 157 157 157 159 158 160 161
241 233 229 230 229 229 223 232 235 228 256 298 222 257 192 179 199 211 171 205 214 222 235 191 237 135 134 98 105 217 293 28 102 29 138 122 147 145 148 147 147 150 150 151 151 153 154 156 158 159 158 160 168 175
251 240 235 229 222 222 219 222 228 233 248 261 233 251 227 177 216 211 195 206 186 252 311 250 203 147 131 99 111 202 243 303 118 104 164 141 152 151 152 151 150 154 150 150 152 154 156 158 160 165 173 179 179 180
296 281 251 239 231 231 228 228 202 212 219 252 242 241 218 233 233 197 185 134 192 262 306 295 237 128 108 97 217 187 145 218 222 162 144 149 153 153 152 154 155 151 150 151 153 159 164 165 170 173 179 180 183 180
289 275 232 225 230 226 218 210 189 206 227 240 242 267 260 265 191 165 172 119 252 279 293 249 242 150 163 145 189 208 158 173 174 122 136 151 154 154 154 156 155 152 153 152 161 168 168 173 176 174 177 183 183 182
285 235 266 271 274 222 202 185 183 191 224 232 251 247 265 296 189 201 184 145 165 312 235 225 189 169 130 181 175 156 100 96 106 117 140 153 152 152 153 154 152 151 150 157 166 167 172 174 173 175 176 177 180 181
286 274 302 290 229 159 164 169 185 203 230 241 244 241 229 271 203 165 166 184 257 257 302 274 154 175 166 171 149 119 111 114 120 133 140 145 148 150 154 151 151 153 156 164 163 171 173 173 175 177 175 173 176 178
299 286 265 282 174 161 170 183 213 218 220 258 252 252 220 109 156 166 189 202 262 284 303 284 167 185 161 159 117 123 133 138 127 128 135 143 148 151 150 150 151 155 163 160 167 170 172 175 176 176 172 174 174 175
308 280 285 172 163 178 169 170 162 213 222 206 232 229 356 83 93 74 142 199 249 257 241 315 40 34 75 77 121 136 140 139 136 133 136 146 151 150 152 152 154 159 154 155 155 162 156 159 179 175 177 177 178 178
327 304 161 128 124 117 237 174 200 226 155 127 165 145 117 139 83 64 67 94 246 4 17 38 56 61 72 96 122 138 142 146 145 145 147 145 151 152 152 155 154 153 153 153 157 158 162 176 178 179 180 180 183 185
326 111 94 142 148 200 175 183 124 134 148 154 157 129 77 8 55 25 359 48 64 352 342 352 39 75 83 99 117 134 134 137 142 146 147 149 151 154 157 156 156 156 158 164 165 164 171 179 179 182 183 183 186 189
57 72 34 124 326 7 64 31 229 140 176 172 152 102 92 92 123 117 33 56 78 7 36 57 56 90 101 104 113 124 135 137 139 146 148 150 151 153 154 156 161 161 161 160 166 167 174 181 183 182 185 186 187 192
49 22 34 84 51 189 150 328 242 35 44 141 196 119 113 135 132 91 135 80 2 27 52 94 116 109 108 111 116 123 134 141 143 145 151 150 149 154 157 160 167 173 170 169 170 175 177 181 183 186 187 189 192 194
34 2 3 12 342 103 56 37 6 44 96 43 44 60 202 140 76 44 44 16 17 24 35 57 118 127 114 112 113 121 135 144 147 147 153 155 151 150 153 158 164 167 175 168 176 182 183 185 187 190 192 194 194 194
71 16 27 357 356 21 12 61 35 17 35 50 41 307 286 92 75 61 44 16 21 19 34 45 53 79 102 114 115 119 131 143 144 148 155 160 160 156 154 156 160 169 186 193 192 189 190 190 192 192 194 195 196 197
35 43 16 353 296 338 52 39 37 41 32 21 349 340 14 71 71 57 44 34 38 40 56 71 73 80 86 103 112 112 121 139 142 144 149 154 162 166 173 172 175 179 191 197 199 200 198 196 194 194 196 196 198 200
358 15 32 356 40 41 50 47 28 20 358 329 336 29 52 32 49 346 350 37 56 77 80 96 93 103 115 114 128 129 127 136 142 145 143 136 144 161 171 180 184 188 193 195 197 201 202 202 199 198 198 198 200 201
26 4 41 15 46 58 30 28 20 355 346 347 48 60 74 58 28 33 44 65 71 83 92 96 91 105 107 108 110 116 121 129 144 158 161 158 161 167 173 179 186 196 197 193 193 197 198 202 203 203 202 201 203 204
0 3 59 25 41 49 20 35 6 26 44 56 87 99 96 86 46 56 66 68 72 73 78 81 81 88 90 97 100 106 110 127 153 171 172 175 177 175 179 188 191 190 192 194 194 191 193 197 200 203 201 201 202 204
2 7 47 49 60 32 18 29 66 53 64 60 76 82 103 120 50 41 48 52 60 74 90 89 86 80 82 86 88 93 91 92 100 115 142 170 177 183 190 192 190 193 197 196 196 197 195 194 197 201 202 203 204 205
27 31 28 67 54 356 6 21 43 46 42 41 34 39 58 70 63 28 21 35 48 56 62 68 81 79 76 72 67 68 84 94 95 94 95 148 175 179 180 182 186 190 191 192 194 195 196 198 199 199 201 202 204 207
29 23 42 58 37 24 7 8 28 51 45 56 42 36 45 58 70 14 20 24 31 28 39 61 75 82 80 73 64 66 77 80 76 79 88 111 148 160 170 180 185 187 189 193 195 198 200 202 204 205 203 205 207 208
Height
1357 1355 1354 1353 1352 1353 1355 1359 1365 1371 1378 1385 1393 1401 1408 1415 1423 1428 1432 1433 1432 1422 1424 1429 1427 1425 1416 1403 1402 1401 1405 1404 1405 1404 1385 1384 1391 1390 1400 1403 1405 1412 1422 1426 1427 1443 1458 1436 1444 1455 1454 1461 1474 1488
1358 1357 1356 1356 1355 1357 1359 1363 1367 1373 1379 1386 1394 1401 1408 1416 1422 1428 1431 1430 1431 1429 1418 1414 1417 1415 1412 1411 1412 1401 1395 1398 1397 1394 1378 1378 1378 1388 1390 1407 1397 1415 1409 1416 1418 1427 1424 1435 1445 1453 1456 1464 1478 1489
1360 1358 1357 1358 1358 1358 1361 1365 1370 1375 1382 1389 1392 1402 1410 1416 1421 1425 1429 1431 1430 1429 1415 1408 1398 1403 1404 1405 1408 1408 1398 1402 1397 1399 1392 1374 1378 1378 1389 1394 1398 1401 1405 1419 1422 1430 1432 1439 1449 1457 1464 1470 1481 1491
1364 1361 1360 1359 1359 1361 1361 1365 1372 1379 1386 1392 1399 1405 1411 1416 1420 1424 1425 1426 1428 1428 1420 1395 1393 1394 1396 1400 1402 1405 1403 1402 1402 1398 1396 1385 1376 1376 1383 1389 1398 1403 1407 1419 1426 1434 1441 1447 1453 1458 1468 1477 1486 1496
1370 1366 1365 1363 1363 1364 1366 1371 1378 1385 1392 1397 1403 1408 1412 1416 1420 1423 1423 1422 1423 1429 1418 1403 1391 1387 1390 1393 1399 1402 1403 1404 1401 1396 1395 1383 1378 1379 1383 1389 1402 1402 1411 1419 1429 1434 1439 1447 1454 1462 1469 1477 1488 1495
1376 1375 1374 1374 1374 1377 1380 1383 1387 1392 1396 1401 1405 1409 1412 1416 1418 1421 1420 1416 1418 1419 1420 1404 1390 1384 1389 1392 1396 1399 1401 1403 1402 1396 1388 1387 1381 1380 1388 1396 1397 1402 1408 1413 1422 1434 1440 1447 1456 1465 1471 1480 1490 1497
1381 1381 1381 1382 1383 1385 1387 1389 1392 1395 1399 1402 1406 1409 1413 1414 1416 1415 1413 1410 1415 1419 1417 1409 1393 1381 1386 1391 1395 1397 1398 1399 1399 1390 1383 1383 1384 1383 1383 1398 1400 1405 1410 1413 1421 1433 1444 1450 1457 1468 1475 1484 1493 1501
1383 1384 1385 1386 1387 1388 1390 1393 1395 1398 1401 1404 1406 1409 1411 1412 1412 1409 1406 1407 1409 1413 1412 1407 1390 1380 1382 1386 1392 1394 1396 1395 1392 1387 1385 1381 1382 1381 1391 1393 1402 1408 1414 1421 1427 1433 1438 1450 1460 1470 1479 1485 1494 1501
1385 1385 1386 1388 1389 1390 1392 1394 1397 1399 1402 1404 1406 1408 1409 1409 1407 1403 1403 1404 1405 1411 1406 1400 1385 1370 1376 1380 1388 1394 1393 1391 1387 1382 1380 1382 1382 1386 1388 1397 1405 1410 1416 1424 1433 1440 1447 1451 1462 1471 1478 1486 1492 1500
1385 1386 1387 1388 1389 1391 1393 1396 1398 1400 1402 1403 1406 1407 1406 1400 1402 1404 1404 1402 1406 1402 1398 1390 1379 1364 1369 1373 1388 1396 1387 1383 1386 1383 1383 1379 1391 1387 1393 1400 1406 1411 1418 1423 1432 1443 1449 1457 1462 1470 1477 1485 1490 1496
1385 1386 1387 1388 1390 1392 1394 1395 1397 1399 1401 1403 1403 1402 1398 1399 1400 1403 1403 1403 1401 1395 1388 1378 1372 1359 1366 1371 1389 1395 1389 1370 1377 1379 1377 1380 1393 1391 1397 1403 1410 1415 1419 1422 1424 1430 1441 1447 1459 1469 1480 1486 1492 1497
1382 1384 1385 1387 1389 1391 1392 1394 1396 1398 1400 1401 1397 1396 1393 1393 1394 1397 1395 1394 1390 1379 1370 1364 1359 1360 1362 1372 1386 1389 1379 1371 1369 1372 1377 1382 1387 1391 1398 1405 1411 1417 1424 1429 1434 1441 1451 1458 1463 1469 1477 1484 1491 1498
1379 1381 1383 1385 1387 1389 1391 1392 1394 1396 1397 1398 1398 1394 1384 1386 1384 1379 1380 1375 1375 1368 1355 1352 1352 1349 1359 1368 1379 1382 1380 1373 1368 1378 1376 1373 1385 1391 1398 1405 1413 1419 1426 1431 1438 1445 1452 1459 1467 1472 1477 1485 1488 1494
1377 1378 1379 1382 1384 1386 1388 1390 1394 1397 1397 1395 1392 1383 1377 1372 1369 1355 1354 1354 1357 1357 1354 1349 1346 1348 1353 1364 1378 1381 1377 1374 1379 1389 1374 1376 1381 1389 1398 1404 1410 1419 1425 1431 1438 1445 1453 1460 1466 1472 1476 1479 1485 1493
1375 1375 1375 1377 1379 1382 1385 1388 1392 1395 1396 1393 1384 1370 1360 1352 1350 1351 1350 1354 1357 1358 1360 1355 1338 1342 1352 1363 1371 1376 1376 1378 1370 1369 1365 1374 1382 1388 1396 1404 1411 1417 1423 1430 1438 1444 1450 1458 1464 1470 1477 1483 1489 1495
1371 1370 1371 1374 1375 1377 1380 1385 1390 1393 1393 1388 1378 1364 1354 1351 1349 1351 1352 1354 1358 1358 1360 1358 1343 1345 1352 1359 1372 1365 1364 1365 1360 1356 1365 1373 1381 1389 1396 1404 1411 1416 1422 1430 1437 1443 1451 1457 1463 1471 1478 1484 1491 1497
1367 1366 1368 1369 1369 1370 1375 1381 1383 1386 1384 1375 1364 1360 1358 1356 1354 1354 1353 1357 1358 1362 1355 1342 1335 1339 1338 1345 1347 1346 1351 1358 1359 1364 1369 1375 1381 1389 1398 1405 1411 1417 1424 1429 1436 1445 1451 1459 1466 1471 1476 1484 1492 1498
1363 1363 1363 1363 1362 1365 1368 1373 1377 1375 1369 1363 1361 1355 1354 1352 1349 1351 1356 1357 1362 1357 1350 1344 1330 1333 1339 1343 1344 1354 1360 1363 1367 1370 1373 1379 1385 1392 1399 1404 1411 1418 1423 1429 1436 1442 1451 1458 1465 1471 1477 1483 1490 1498
1358 1356 1356 1355 1357 1361 1363 1368 1367 1363 1359 1358 1356 1354 1352 1351 1354 1354 1355 1356 1358 1358 1354 1341 1328 1333 1335 1336 1343 1354 1362 1367 1368 1372 1378 1384 1389 1395 1400 1408 1414 1419 1423 1429 1435 1443 1450 1457 1462 1468 1475 1481 1488 1495
1353 1351 1348 1351 1354 1355 1356 1358 1358 1358 1355 1354 1350 1349 1351 1349 1350 1353 1355 1359 1358 1359 1349 1344 1339 1345 1345 1348 1350 1353 1359 1364 1368 1374 1381 1388 1393 1398 1403 1408 1414 1420 1427 1434 1440 1445 1453 1460 1464 1470 1475 1480 1486 1492
1346 1347 1347 1347 1351 1353 1354 1354 1355 1354 1353 1352 1351 1351 1351 1354 1357 1357 1356 1355 1356 1356 1352 1352 1353 1353 1353 1354 1355 1358 1364 1368 1370 1374 1379 1386 1394 1400 1406 1412 1417 1422 1426 1432 1438 1447 1452 1456 1462 1469 1475 1481 1488 1493
1346 1344 1346 1348 1352 1352 1352 1353 1351 1351 1353 1352 1353 1353 1350 1349 1353 1356 1359 1362 1365 1366 1364 1360 1358 1357 1358 1359 1361 1364 1366 1370 1375 1379 1385 1390 1394 1401 1406 1412 1417 1422 1427 1431 1437 1443 1450 1456 1462 1468 1474 1481 1487 1493
1350 1349 1350 1351 1351 1350 1351 1349 1351 1352 1351 1350 1352 1355 1359 1362 1362 1362 1363 1365 1368 1367 1364 1363 1362 1362 1363 1364 1366 1368 1371 1374 1378 1383 1388 1393 1399 1403 1408 1413 1417 1421 1426 1435 1440 1445 1449 1455 1461 1467 1473 1480 1486 1491
1353 1353 1353 1353 1352 1353 1353 1352 1351 1348 1348 1350 1350 1351 1354 1356 1357 1360 1362 1369 1369 1365 1364 1363 1365 1367 1369 1370 1372 1373 1376 1378 1382 1387 1391 1395 1399 1406 1410 1414 1419 1423 1428 1432 1439 1444 1450 1455 1460 1466 1472 1477 1483 1489
1357 1358 1356 1354 1353 1353 1353 1353 1352 1350 1352 1350 1348 1351 1354 1354 1357 1360 1364 1370 1369 1368 1367 1366 1366 1371 1374 1374 1375 1377 1380 1383 1385 1389 1394 1398 1401 1406 1412 1416 1420 1424 1427 1432 1437 1442 1448 1454 1459 1464 1470 1476 1481 1487
1358 1360 1360 1356 1354 1353 1351 1351 1352 1351 1350 1352 1354 1356 1354 1355 1361 1372 1376 1377 1376 1374 1372 1372 1372 1375 1377 1379 1380 1381 1384 1386 1389 1393 1397 1400 1403 1405 1408 1412 1418 1425 1428 1431 1434 1440 1446 1452 1458 1463 1469 1474 1480 1485
1359 1361 1361 1358 1357 1355 1355 1356 1356 1357 1357 1360 1361 1359 1357 1360 1370 1382 1383 1380 1379 1379 1379 1379 1379 1379 1381 1382 1383 1384 1387 1389 1393 1396 1399 1403 1406 1409 1411 1412 1416 1420 1424 1429 1435 1440 1444 1450 1456 1462 1467 1472 1478 1483
1366 1364 1363 1363 1361 1361 1360 1362 1365 1367 1368 1370 1368 1368 1370 1377 1386 1387 1384 1382 1384 1383 1384 1385 1384 1384 1384 1384 1385 1386 1387 1390 1393 1396 1399 1403 1408 1410 1413 1416 1419 1421 1424 1429 1434 1439 1444 1449 1454 1459 1465 1470 1474 1479
1371 1370 1368 1367 1366 1370 1373 1375 1376 1377 1374 1370 1369 1375 1384 1389 1390 1387 1385 1384 1385 1385 1387 1386 1387 1387 1387 1387 1388 1389 1391 1394 1397 1399 1400 1402 1405 1408 1411 1415 1418 1421 1426 1430 1433 1438 1443 1448 1453 1458 1463 1468 1473 1478
1373 1370 1371 1373 1373 1378 1381 1381 1380 1377 1374 1373 1375 1382 1387 1391 1392 1389 1388 1387 1385 1385 1388 1389 1390 1390 1390 1391 1392 1393 1394 1396 1398 1401 1402 1403 1406 1409 1411 1413 1417 1421 1425 1428 1432 1436 1440 1445 1450 1455 1460 1465 1470 1474
1382 1379 1379 1381 1384 1387 1385 1383 1381 1379 1377 1380 1382 1383 1386 1388 1389 1390 1388 1387 1389 1390 1391 1392 1393 1393 1394 1394 1394 1396 1397 1399 1400 1402 1404 1405 1407 1409 1411 1414 1417 1420 1423 1427 1431 1435 1438 1443 1448 1453 1458 1463 1467 1472
1386 1387 1387 1387 1390 1389 1388 1388 1388 1389 1388 1389 1389 1388 1388 1389 1394 1397 1397 1396 1394 1392 1393 1394 1396 1397 1398 1398 1399 1400 1400 1401 1403 1404 1405 1406 1408 1409 1411 1414 1417 1420 1423 1426 1430 1434 1438 1442 1446 1451 1455 1460 1464 1468
1390 1389 1388 1390 1391 1391 1393 1392 1390 1390 1392 1394 1396 1396 1396 1399 1406 1409 1408 1405 1402 1400 1401 1399 1398 1399 1400 1402 1403 1403 1404 1404 1405 1406 1407 1407 1409 1410 1412 1415 1417 1420 1423 1426 1430 1434 1437 1441 1445 1449 1453 1457 1462 1465